This is the latest recevied weather packets stored in our database for station/object HP3ICC-22. If no packets are shown the sender has not sent any weather packets the latest 10 day(s).
| Time | Temp. | Humidity | Pressure | Rain* | Wind** | Luminosity | Snow |
|---|---|---|---|---|---|---|---|
| 1777974163 | 9.44° C | 85% | 1012 hPa | 0 mm | - | - | - |
| 1777973023 | 9.44° C | 80% | 1011 hPa | 0 mm | - | - | - |
| 1777972963 | 9.44° C | 80% | 1011 hPa | 0 mm | - | - | - |
| 1777971822 | 10.56° C | 78% | 1011 hPa | 0 mm | - | - | - |
| 1777971762 | 10.56° C | 78% | 1011 hPa | 0 mm | - | - | - |
| 1777970622 | 8.89° C | 90% | 1012 hPa | 0 mm | - | - | - |
| 1777970562 | 8.89° C | 90% | 1012 hPa | 0 mm | - | - | - |
| 1777969421 | 9.44° C | 90% | 1011 hPa | 0 mm | - | - | - |
| 1777969361 | 9.44° C | 90% | 1011 hPa | 0 mm | - | - | - |
| 1777968220 | 9.44° C | 80% | 1011 hPa | 0 mm | - | - | - |
| 1777968160 | 9.44° C | 80% | 1011 hPa | 0 mm | - | - | - |
| 1777967020 | 10.56° C | 78% | 1012 hPa | 0 mm | - | - | - |
| 1777966964 | 10.56° C | 78% | 1012 hPa | 0 mm | - | - | - |
| 1777965820 | 9.44° C | 78% | 1011 hPa | 0 mm | - | - | - |
| 1777965760 | 9.44° C | 78% | 1011 hPa | 0 mm | - | - | - |
| 1777964619 | 10.56° C | 78% | 1012 hPa | 0 mm | - | - | - |
| 1777964559 | 10.56° C | 78% | 1012 hPa | 0 mm | - | - | - |
| 1777963419 | 9.44° C | 87% | 1013 hPa | 0 mm | - | - | - |
| 1777963358 | 9.44° C | 87% | 1013 hPa | 0 mm | - | - | - |
| 1777962218 | 10° C | 87% | 1013 hPa | 0 mm | - | - | - |
| 1777962158 | 10° C | 87% | 1013 hPa | 0 mm | - | - | - |
| 1777961018 | 9.44° C | 78% | 1013 hPa | 0 mm | - | - | - |
| 1777960957 | 9.44° C | 78% | 1013 hPa | 0 mm | - | - | - |
| 1777959817 | 10.56° C | 78% | 1014 hPa | 0 mm | - | - | - |
| 1777959757 | 10.56° C | 78% | 1014 hPa | 0 mm | - | - | - |
* Rain latest hour (hover to see other rain measurements)
** Current wind speed in m/s (hover to see current wind gust speed)